Location: Pradons
(44.4746°N, 4.3578°E)
Time: 13:48:31
(UTC+00:00)

Cosmos 1703 - Visible Passes

Search period start: 06 August 2020 00:00
Search period end: 16 August 2020 00:00
Orbit: 525 x 539 km, 82.5° (Epoch: 05 August)

Date Brightness Start Highest point End Pass type
(mag) Time Alt. Az. Time Alt. Az. Time Alt. Az.
06 Aug 6.1 02:41:45 10° NNE 02:44:35 18° ENE 02:47:24 10° ESE visible
07 Aug 6.2 02:31:56 10° NNE 02:34:40 18° ENE 02:37:23 10° ESE visible
08 Aug 6.2 02:22:06 10° NNE 02:24:44 17° ENE 02:27:21 10° ESE visible
08 Aug 3.8 03:57:16 10° NNW 04:00:59 38° W 04:04:38 10° SSW visible
09 Aug 6.2 02:12:18 10° NNE 02:14:48 16° ENE 02:17:19 10° ESE visible
09 Aug 3.7 03:47:20 10° NNW 03:51:05 40° W 03:54:47 10° SSW visible
10 Aug 6.2 02:02:29 10° NNE 02:04:53 15° ENE 02:07:16 10° ESE visible
10 Aug 3.7 03:37:24 10° NNW 03:41:11 43° W 03:44:55 10° SSW visible
11 Aug 6.2 01:52:42 10° NE 01:54:57 15° ENE 01:57:11 10° ESE visible
11 Aug 3.6 03:27:28 10° NNW 03:31:17 45° W 03:35:03 10° SSW visible
12 Aug 6.2 01:42:54 10° NE 01:45:01 14° ENE 01:47:07 10° E visible
12 Aug 3.5 03:17:32 10° NNW 03:21:23 48° W 03:24:37 14° SSW visible
13 Aug 6.2 01:33:08 10° NE 01:35:05 13° ENE 01:37:01 10° E visible
13 Aug 3.4 03:07:37 10° NNW 03:11:29 51° W 03:13:52 21° SSW visible
14 Aug 6.2 01:23:24 10° NE 01:25:09 13° ENE 01:26:54 10° E visible
14 Aug 3.4 02:57:41 10° NNW 03:01:35 54° W 03:03:14 30° SSW visible
15 Aug 6.2 01:13:40 10° NE 01:15:13 12° ENE 01:16:45 10° E visible
15 Aug 3.3 02:47:46 10° NNW 02:51:41 58° W 02:52:41 42° SSW visible
